STARLINK-36609, 67582

Orbit data source: Space-Track

STARLINK-36609, 67582 is a payload satellite owned by SpaceX/Seattle (US) in SSO that was launched on Sun, 25 Jan 2026 UTC via an FALCON 9 launch vehicle from the Air Force Western Test Range (AFWTR). Payload-class satellites include a variety of spacecraft equipped with specific instruments for various scientific and technological missions. These include communications satellites like Starlink; space stations such as the ISS; scientific satellites like the Hubble; Earth observation satellites from companies like Planet Labs, Umbra, and HawkEye 360; GPS; miniature CubeSats for education and research; and military/defense satellites.

Loading next visibility...
Identifier
67582, 2026-016X
Orbit
SSO
Country
Flag of USUS
Related business
Manufacturer
SpaceX/Seattle
Mission
Operational Commercial Communications
Bus & Motor
STARLINK V2MO, Unknown motor
Mass
575 kg wet, ~530 kg dry
Launch date (UTC)
2026-01-25 (5 months ago)
Launch vehicle
FALCON 9
Launch site
Air Force Western Test Range (AFWTR)
Object type
Payload
Rocket body
Debris
Shape & HBR
Box + 2 Pan, 17.7 m
Radar Cross Section
36.964 m², Large (>1 m²)

Expand to show TLE details & history
Last TLE update: 1 day ago

TLE from 1 day ago
0 STARLINK-36609
1 67582U 26016X   26170.73999319 -.00023928  00000-0 -74118-3 0  9999
2 67582  97.2841 230.7090 0002263  58.4626 301.6838 15.33443005 22502
Epoch: 2026-06-19T17:45Z
TLE epoch observation values (Epoch: 2026-06-19T17:45:35.411Z)
Latitude
0.00002°
Longitude
56.34682°
Altitude
467.848 km
Speed
7.633 km/s
True Right ascension
15h 22m 50s
True Declination
0° 00' 00"
Sunlit
Object was in full shadow at epoch
Visualization orbit readout
Latitude
Unknown
Longitude
Unknown
Altitude
Unknown
Speed
Unknown
Apparent Right ascension
Unknown
Apparent Declination
Unknown
Sunlit
N/A
Visualization observer readout
Local Sidereal Time
10:18:54
Azimuth
Unknown
Elevation
Unknown
Doppler factor
Unknown
Orbital elements
Apogee altitude
464.04 km
Perigee altitude
460.944 km
Semi-major axis
6,840.629 km
Eccentricity
0.00023
Inclination
97.2841°
RAAN
230.709°
Arg. of periapsis
58.4626°
True anomaly
301.66173°
Mean anomaly
301.6838°
Eccentric anomaly
301.67277°
Mean motion
3.83618 °/min
Orbital period
93.84 mins
BSTAR
-0.00074118
Loading maneuver chart data...
Computing Atmospheric mass density...
Loading historical data...
Loading historical data...
Loading historical data...
Loading historical data...
Loading historical data...
Loading historical data...
Loading historical data...

Documentation

Showing up to 5 results
|